[[{"header":{"parameterUnit":"m.s-1","parameterCategory":1,"la1":30.2991,"la2":30.254,"lo1":-89.0895,"lo2":-89.0444,"dy":0.0017,"dx":0.0017,"nx":28,"ny":28,"refTime":"2024-10-15T21:00:00:Z","depth":0,"parameterNumber":2,"parameterNumberName":"U-component_of_WINDS"},"data":[0,0,0,0,0,0,0,0,0,0,0,0,0,0,0,0,0,0,0,0,0,0,0,0,0,0,0,0,0,0,0,0,0,0,0,0,0,0,0,0,0,0,0,0,0,0,0,0,0,0,0,0,0,0,0,0,0,0,-2.0651,-2.0651,0,-2.0666,-2.0667,-2.0667,-2.0627,-2.0626,-2.0625,-2.0624,-2.064,-2.0641,-2.0643,0,0,0,0,0,0,0,0,0,0,0,0,0,-2.0587,-2.0588,-2.0651,-2.0651,-2.0651,-2.0666,-2.0667,-2.0667,-2.0628,-2.0626,-2.0625,-2.0623,-2.0639,-2.0641,-2.0643,0,0,0,0,0,0,0,0,0,0,0,0,0,-2.061,-2.0589,-2.0651,-2.0634,-2.0632,-2.0666,-2.0667,-2.0667,-2.0628,-2.0626,-2.0624,-2.0622,-2.0638,-2.0641,-2.0643,-2.0695,0,0,-2.065,-2.0651,0,0,0,0,0,0,0,0,-2.0609,-2.0612,-2.0636,-2.0635,-2.0633,-2.0643,-2.065,-2.0676,-2.0628,-2.063,-2.0624,-2.0622,-2.0642,-2.0644,-2.0651,-2.0695,-2.0696,-2.0651,-2.0652,-2.0653,-2.0654,0,0,0,0,0,0,0,-2.0607,-2.0611,-2.0657,-2.0636,-2.0635,-2.0625,-2.0626,-2.0655,-2.0646,-2.0629,-2.0626,-2.0629,-2.0641,-2.0649,-2.0651,-2.0696,-2.065,-2.0653,-2.0654,-2.0655,-2.0783,-2.0785,0,0,0,0,0,0,-2.0608,-2.061,-2.0657,-2.0658,-2.0616,-2.0628,-2.0629,-2.0642,-2.0646,-2.0644,-2.063,-2.0627,-2.0646,-2.0649,-2.0652,-2.0712,-2.0653,-2.0655,-2.0656,-2.0781,-2.0784,-2.0786,0,0,0,0,0,0,-2.0607,-2.0612,-2.0656,-2.0633,-2.0638,-2.0631,-2.0645,-2.0643,-2.0651,-2.0647,-2.0645,-2.064,-2.0644,-2.0648,-2.0684,-2.0712,-2.0656,-2.0658,-2.0779,-2.0782,-2.0785,-2.0834,0,0,0,0,0,0,-2.0605,-2.0612,-2.0632,-2.0634,-2.0639,-2.0689,-2.0647,-2.0645,-2.0655,-2.0651,-2.0655,-2.0654,-2.0643,-2.0681,-2.0687,-2.0714,-2.066,-2.0776,-2.078,-2.0784,-2.083,-2.0838,-2.0846,0,0,0,0,0,-2.0603,-2.0645,-2.0633,-2.0639,-2.0664,-2.069,-2.0693,-2.068,-2.0657,-2.0677,-2.0674,-2.0654,-2.0708,-2.0685,-2.0691,-2.072,-2.0775,-2.0779,-2.0784,-2.0826,-2.0837,-2.0845,0,0,0,0,0,0,-2.0647,-2.0645,-2.0632,-2.0676,-2.0684,-2.0684,-2.0708,-2.0692,-2.0706,-2.0701,-2.0684,-2.0685,-2.0725,-2.0726,-2.07,-2.077,-2.0737,-2.0743,-2.0768,-2.0778,-2.0785,-2.0785,-2.0662,0,0,0,0,0,-2.0662,-2.0683,-2.0681,-2.072,-2.0724,-2.0716,-2.0727,-2.0716,-2.0723,-2.0726,-2.0726,-2.0733,-2.0752,-2.0765,-2.0782,-2.083,-2.083,-2.0853,-2.086,-2.0867,-2.0872,-2.0898,-2.0908,-2.0801,-2.0801,-2.0801,0,0,-2.0693,-2.0694,-2.0709,-2.0729,-2.0733,-2.0756,-2.0719,-2.0744,-2.0761,-2.073,-2.0764,-2.0764,-2.0771,-2.0813,-2.0832,-2.0815,-2.0902,-2.0873,-2.0878,-2.088,-2.0903,-2.0913,-2.0922,-2.0804,-2.0803,-2.0803,0,0,-2.0761,-2.0764,-2.0797,-2.0802,-2.081,-2.0804,-2.0812,-2.0814,-2.0813,-2.0846,-2.0824,-2.0843,-2.0876,-2.0882,-2.0889,-2.0959,-2.0941,-2.0965,-2.1006,-2.1031,-2.1039,-2.1047,-2.1072,-2.1081,-2.097,-2.097,-2.097,0,-2.0798,-2.0832,-2.0816,-2.0844,-2.0853,-2.0825,-2.0859,-2.0864,-2.0877,-2.0884,-2.0865,-2.0906,-2.0909,-2.0952,-2.0969,-2.0975,-2.0984,-2.0965,-2.1039,-2.1046,-2.1053,-2.1077,-2.1086,-2.0973,-2.0973,-2.0972,-2.0972,0,-2.0877,-2.0901,-2.0927,-2.094,-2.0952,-2.0982,-2.0971,-2.0985,-2.0973,-2.0969,-2.1003,-2.1006,-2.1022,-2.1032,-2.102,-2.1073,-2.1063,-2.1042,-2.1009,-2.1067,-2.1088,-2.1097,-2.0977,-2.0976,-2.0975,-2.0975,0,0,-2.0975,-2.0978,-2.0988,-2.0993,-2.0999,-2.1017,-2.1045,-2.1062,-2.1074,-2.1083,-2.1107,-2.1135,-2.1116,-2.1124,-2.1113,-2.1135,-2.119,-2.1111,-2.1111,-2.1126,-2.1248,-2.1264,-2.1275,-2.1177,-2.1179,-2.118,-2.1248,0,-2.1042,-2.1091,-2.1078,-2.1127,-2.1149,-2.1123,-2.1148,-2.1154,-2.115,-2.1168,-2.1164,-2.1184,-2.1157,-2.1162,-2.1182,-2.1179,-2.1214,-2.1174,-2.1199,-2.12,-2.1199,-2.1286,-2.1303,-2.1367,-2.1256,-2.1258,-2.1259,0,-2.1127,-2.114,-2.1192,-2.1193,-2.1202,-2.1225,-2.1238,-2.1255,-2.1262,-2.1257,-2.1267,-2.1251,-2.1279,-2.1245,-2.1284,-2.1257,-2.1266,-2.1266,-2.1268,-2.127,-2.1233,-2.1291,-2.1387,-2.1397,-2.1272,-2.1271,-2.127,0,-2.1193,-2.1223,-2.1258,-2.1263,-2.1266,-2.1283,-2.1284,-2.1289,-2.1299,-2.1311,-2.1318,-2.1333,-2.1342,-2.1353,-2.1342,-2.1319,-2.1382,-2.1348,-2.138,-2.138,-2.1395,-2.1394,-2.1494,-2.14,-2.14,-2.14,-2.14,0,-2.127,-2.1303,-2.1287,-2.1309,-2.1344,-2.1328,-2.1364,-2.1363,-2.1367,-2.1387,-2.1365,-2.1385,-2.1369,-2.1387,-2.1378,-2.1411,-2.1415,-2.1413,-2.141,-2.1415,-2.1415,-2.1421,-2.1417,-2.1403,-2.1402,-2.1401,-2.1401,0,-2.135,-2.1341,-2.1377,-2.1377,-2.1377,-2.1404,-2.1403,-2.1423,-2.1418,-2.1444,-2.1449,-2.1441,-2.1461,-2.1451,-2.1472,-2.1465,-2.1508,-2.15,-2.1507,-2.1504,-2.1537,-2.1534,-2.1644,-2.1658,-2.1556,-2.1557,-2.1557,0,-2.14,-2.1425,-2.1427,-2.1439,-2.1443,-2.1463,-2.1473,-2.1458,-2.147,-2.1479,-2.1497,-2.1516,-2.1529,-2.1563,-2.1559,-2.1574,-2.1566,-2.1603,-2.1568,-2.1572,-2.1567,-2.1566,-2.1568,-2.1611,-2.1612,-2.1613,-2.1614,0,-2.149,-2.1484,-2.1501,-2.1515,-2.1529,-2.1539,-2.1548,-2.1559,-2.1545,-2.1559,-2.1579,-2.159,-2.1611,-2.163,-2.1643,-2.1645,-2.1627,-2.1625,-2.1633,-2.1639,-2.1642,-2.1641,-2.1526,-2.1622,-2.1622,-2.1621,-2.162,-2.162,-2.1557,-2.1578,-2.1582,-2.1601,-2.1606,-2.1615,-2.1633,-2.163,-2.1646,-2.1663,-2.1652,-2.1676,-2.1681,-2.1698,-2.1702,-2.172,-2.1705,-2.1717,-2.172,-2.1724,-2.1728,-2.1638,-2.1722,-2.1722,-2.1722,-2.1722,-2.1722,0,-2.1646,-2.1648,-2.1665,-2.1678,-2.1693,-2.1674,-2.1683,-2.1696,-2.1718,-2.1724,-2.1738,-2.1761,-2.1778,-2.1775,-2.1791,-2.1807,-2.1799,-2.1811,-2.181,-2.1811,-2.174,-2.1732,-2.1817,-2.1817,-2.1817,-2.1817,-2.1817,-2.1817,-2.1694,-2.1728,-2.1722,-2.1758,-2.1759,-2.1782,-2.1789,-2.1797,-2.1802,-2.1829,-2.1843,-2.1841,-2.1843,-2.1859,-2.1874,-2.1873,-2.188,-2.1895,-2.1891,-2.1825,-2.1816,-2.1807,-2.1799,-2.1897,-2.1897,-2.196,-2.1961,-2.1961]},{"header":{"parameterUnit":"m.s-1","parameterCategory":1,"la1":30.2991,"la2":30.254,"lo1":-89.0895,"lo2":-89.0444,"dy":0.0017,"dx":0.0017,"nx":28,"ny":28,"refTime":"2024-10-15T21:00:00:Z","depth":0,"parameterNumber":3,"parameterNumberName":"V-component_of_WINDS"},"data":[0,0,0,0,0,0,0,0,0,0,0,0,0,0,0,0,0,0,0,0,0,0,0,0,0,0,0,0,0,0,0,0,0,0,0,0,0,0,0,0,0,0,0,0,0,0,0,0,0,0,0,0,0,0,0,0,0,0,-6.2484,-6.2485,0,-6.2533,-6.2533,-6.2534,-6.2495,-6.2493,-6.2492,-6.249,-6.2535,-6.2537,-6.254,0,0,0,0,0,0,0,0,0,0,0,0,0,-6.2353,-6.2356,-6.2484,-6.2485,-6.2485,-6.2533,-6.2533,-6.2534,-6.2495,-6.2493,-6.2491,-6.249,-6.2534,-6.2537,-6.254,0,0,0,0,0,0,0,0,0,0,0,0,0,-6.2407,-6.2357,-6.2484,-6.2472,-6.2471,-6.2532,-6.2533,-6.2534,-6.2496,-6.2493,-6.2491,-6.2489,-6.2533,-6.2537,-6.2541,-6.2615,0,0,-6.2553,-6.2555,0,0,0,0,0,0,0,0,-6.2404,-6.2412,-6.2473,-6.2473,-6.2472,-6.2505,-6.2503,-6.2561,-6.2496,-6.2486,-6.249,-6.2487,-6.2527,-6.2531,-6.2545,-6.2617,-6.2619,-6.2554,-6.2556,-6.2558,-6.2559,0,0,0,0,0,0,0,-6.24,-6.2409,-6.2503,-6.2474,-6.2474,-6.2463,-6.2467,-6.2514,-6.2519,-6.2487,-6.2484,-6.2491,-6.2526,-6.2542,-6.2546,-6.2619,-6.2553,-6.2557,-6.256,-6.2561,-6.2754,-6.2757,0,0,0,0,0,0,-6.2398,-6.2406,-6.2502,-6.2505,-6.2432,-6.2467,-6.2472,-6.2497,-6.2519,-6.252,-6.2493,-6.2489,-6.2536,-6.2541,-6.2548,-6.2636,-6.2558,-6.2562,-6.2564,-6.2751,-6.2755,-6.2757,0,0,0,0,0,0,-6.2396,-6.2407,-6.25,-6.2455,-6.2466,-6.2472,-6.25,-6.2499,-6.2515,-6.2523,-6.2524,-6.2508,-6.2534,-6.2542,-6.2599,-6.2637,-6.2563,-6.2567,-6.2748,-6.2752,-6.2756,-6.2813,0,0,0,0,0,0,-6.2392,-6.2407,-6.2436,-6.2456,-6.2468,-6.2552,-6.2502,-6.2502,-6.2523,-6.2518,-6.2538,-6.2539,-6.2533,-6.2593,-6.2603,-6.2641,-6.257,-6.2745,-6.275,-6.2755,-6.2807,-6.2818,-6.2827,0,0,0,0,0,-6.2388,-6.2448,-6.2437,-6.2449,-6.2505,-6.2554,-6.2561,-6.2554,-6.2526,-6.2555,-6.256,-6.2538,-6.2631,-6.2599,-6.261,-6.265,-6.2742,-6.2748,-6.2754,-6.2803,-6.2816,-6.2827,0,0,0,0,0,0,-6.243,-6.2451,-6.2439,-6.2508,-6.253,-6.2547,-6.2583,-6.2568,-6.2597,-6.2591,-6.258,-6.2585,-6.2645,-6.2653,-6.2617,-6.2723,-6.2682,-6.269,-6.2715,-6.2728,-6.2737,-6.2734,-6.2574,0,0,0,0,0,-6.2448,-6.2488,-6.2503,-6.2562,-6.2574,-6.2577,-6.2598,-6.2591,-6.2612,-6.2621,-6.263,-6.265,-6.2684,-6.2706,-6.2738,-6.2809,-6.2812,-6.2841,-6.2851,-6.2859,-6.2867,-6.2905,-6.2918,-6.2777,-6.2777,-6.2777,0,0,-6.2485,-6.2501,-6.2526,-6.2572,-6.2587,-6.2627,-6.2585,-6.2628,-6.2657,-6.2627,-6.2682,-6.2689,-6.2711,-6.2775,-6.2804,-6.2784,-6.2906,-6.2867,-6.2874,-6.2876,-6.2912,-6.2926,-6.2938,-6.2781,-6.2781,-6.278,0,0,-6.2572,-6.2588,-6.264,-6.2658,-6.2683,-6.2685,-6.2698,-6.2718,-6.2722,-6.2778,-6.2756,-6.2789,-6.2847,-6.2864,-6.288,-6.2975,-6.2955,-6.2985,-6.3037,-6.3074,-6.3085,-6.3095,-6.3128,-6.3141,-6.2992,-6.2992,-6.2992,0,-6.2613,-6.2674,-6.2668,-6.2714,-6.2735,-6.2711,-6.2763,-6.2779,-6.2813,-6.2827,-6.2804,-6.2878,-6.289,-6.2959,-6.2982,-6.2996,-6.3009,-6.2982,-6.3084,-6.3094,-6.3103,-6.3135,-6.3148,-6.2996,-6.2995,-6.2995,-6.2995,0,-6.2724,-6.2767,-6.2805,-6.2841,-6.2866,-6.2914,-6.2914,-6.294,-6.2931,-6.2935,-6.2991,-6.3006,-6.304,-6.3056,-6.3047,-6.3123,-6.311,-6.3086,-6.3045,-6.312,-6.315,-6.3162,-6.3001,-6.3,-6.2998,-6.2998,0,0,-6.2838,-6.2872,-6.2886,-6.2902,-6.2929,-6.2961,-6.3008,-6.3044,-6.3066,-6.309,-6.3128,-6.3179,-6.3157,-6.3176,-6.3168,-6.3201,-6.3275,-6.3173,-6.3174,-6.3192,-6.336,-6.3377,-6.3392,-6.3263,-6.3265,-6.3267,-6.3358,0,-6.2927,-6.3012,-6.3008,-6.3086,-6.3125,-6.3104,-6.3145,-6.3165,-6.317,-6.3202,-6.3206,-6.3243,-6.3212,-6.3223,-6.3254,-6.326,-6.3309,-6.3253,-6.3298,-6.3299,-6.3293,-6.3407,-6.3426,-6.3511,-6.3369,-6.3371,-6.3373,0,-6.3041,-6.3072,-6.3155,-6.3177,-6.3193,-6.323,-6.3263,-6.3294,-6.3316,-6.3318,-6.3339,-6.3327,-6.3373,-6.3331,-6.3395,-6.3357,-6.3375,-6.338,-6.3383,-6.3387,-6.334,-6.3414,-6.3538,-6.355,-6.3391,-6.339,-6.3388,0,-6.3117,-6.3178,-6.3236,-6.325,-6.3277,-6.3304,-6.3316,-6.3336,-6.3358,-6.3386,-6.34,-6.3432,-6.3449,-6.3474,-6.347,-6.344,-6.3535,-6.3493,-6.3536,-6.3536,-6.3556,-6.3555,-6.3685,-6.3569,-6.3569,-6.3568,-6.3568,0,-6.3215,-6.3267,-6.327,-6.3306,-6.3363,-6.3358,-6.3413,-6.3422,-6.344,-6.3476,-6.3459,-6.3492,-6.3486,-6.3519,-6.3516,-6.3569,-6.3576,-6.3578,-6.3576,-6.358,-6.3579,-6.3591,-6.3585,-6.3572,-6.3571,-6.357,-6.357,0,-6.3309,-6.3313,-6.3375,-6.3396,-6.3403,-6.3444,-6.3461,-6.3494,-6.3498,-6.3544,-6.3554,-6.3559,-6.3598,-6.3597,-6.3639,-6.3637,-6.3702,-6.3694,-6.3696,-6.3694,-6.3737,-6.3733,-6.3879,-6.3897,-6.3769,-6.377,-6.3771,0,-6.3372,-6.3411,-6.3438,-6.3462,-6.3476,-6.3514,-6.3537,-6.3534,-6.3558,-6.3587,-6.3616,-6.3653,-6.3682,-6.3744,-6.3751,-6.3783,-6.3775,-6.3824,-6.378,-6.3782,-6.3776,-6.3774,-6.3777,-6.3833,-6.3834,-6.3835,-6.3836,0,-6.3483,-6.3483,-6.3518,-6.3554,-6.3582,-6.361,-6.3635,-6.3655,-6.3654,-6.3682,-6.3722,-6.3745,-6.379,-6.3826,-6.3858,-6.3868,-6.3852,-6.385,-6.3862,-6.3865,-6.3865,-6.3866,-6.3719,-6.3847,-6.3846,-6.3845,-6.3844,-6.3844,-6.3562,-6.3597,-6.3622,-6.3661,-6.368,-6.3704,-6.3737,-6.3746,-6.378,-6.3817,-6.3812,-6.3857,-6.3878,-6.3919,-6.3933,-6.3966,-6.3949,-6.3966,-6.397,-6.3974,-6.3979,-6.386,-6.3972,-6.3972,-6.3971,-6.3971,-6.3971,0,-6.3673,-6.3688,-6.3724,-6.3761,-6.3792,-6.3777,-6.3804,-6.383,-6.387,-6.3892,-6.3922,-6.3968,-6.4004,-6.4014,-6.4048,-6.4073,-6.4066,-6.4082,-6.408,-6.4083,-6.3993,-6.3979,-6.4087,-6.4087,-6.4087,-6.4087,-6.4087,-6.4087,-6.3734,-6.3791,-6.3795,-6.3861,-6.3875,-6.3921,-6.3938,-6.396,-6.3977,-6.403,-6.4061,-6.4068,-6.4085,-6.412,-6.4152,-6.4154,-6.4167,-6.4186,-6.4185,-6.4101,-6.4089,-6.4078,-6.4065,-6.4189,-6.4189,-6.4272,-6.4272,-6.4273]}]]